Lid_Strength_Index
-0 -0 0 3 11 12 15 13 9 10 10 7 6 7 8 7 9 12 3 1 1 1 -0 -1 -2 -1 -1 -1 -1 -1 -1 -1 -1 -1 -1 -2 -1 -2 -2 -1 -1 -1 -1 -1 -1 -1 -2 -2 -1
-0 0 2 6 13 16 15 10 11 9 7 6 6 6 7 9 5 4 3 2 0 -0 -0 -0 -1 -1 -1 -1 -1 -1 -1 -1 -1 -1 -1 -1 -1 -1 -1 -1 -1 -1 -1 -1 -2 -1 -2 -2 -2
0 1 7 10 13 16 15 10 9 8 6 6 7 5 6 7 4 3 3 0 -0 0 0 -0 -1 -1 -1 -1 -1 -1 -1 -1 -1 -1 -1 -1 -1 -1 -1 -1 -1 -1 -1 -1 -1 -1 -1 -1 -2
2 4 6 12 14 11 11 9 8 8 6 6 6 8 5 3 4 3 1 -0 0 0 -0 -1 -1 -1 -1 -1 -1 -1 -1 -1 -1 -1 -1 -1 -1 -1 -1 -1 -1 -2 -1 -1 -1 -2 -1 -1 -1
3 6 12 13 12 10 8 7 7 8 7 7 7 9 7 3 2 2 2 0 1 0 -0 -0 -2 -1 -1 -1 -1 -1 -1 -1 -1 -1 -1 -1 -1 -1 -1 -1 -1 -2 -1 -1 -1 -2 -1 -2 -2
7 7 13 14 12 9 8 7 7 8 7 7 7 8 7 3 2 2 2 0 -0 0 -0 -0 -1 -1 -1 -1 -1 -1 -1 -1 -1 -1 -1 -1 -1 -1 -1 -1 -1 -1 -1 -1 -2 -1 -1 -2 -1
7 10 13 12 12 10 9 6 7 8 7 7 6 9 7 4 2 2 1 0 0 -0 0 -0 0 -1 -1 -1 -1 -1 -1 -1 -1 -1 -1 -1 -1 -1 -1 -1 -1 -1 -1 -1 -1 -1 -1 -1 -1
6 9 12 11 11 11 7 7 6 7 8 5 5 9 9 4 3 1 1 1 0 1 0 1 0 -0 -0 -0 -1 -1 -1 -1 -1 -1 -1 -1 -1 -1 -1 -1 -1 -1 -1 -1 -1 -1 -1 -1 -1
4 11 13 12 11 10 7 8 5 4 6 5 4 5 4 3 2 2 2 2 1 1 1 1 1 0 0 -0 -0 -1 -1 -1 -1 -1 -1 -1 -0 -1 -1 -1 -1 -1 -1 -1 -1 -1 -1 -1 -1
8 12 11 8 8 9 7 7 7 7 7 7 6 4 3 3 3 3 3 3 3 2 1 1 -0 0 0 -0 -0 0 -1 -0 -0 -1 -0 -1 -0 -0 -1 -1 -1 -1 -1 -1 -1 -1 -1 -1 -1
8 11 8 7 7 6 7 7 6 8 9 7 7 6 4 4 4 3 3 3 2 2 1 0 0 -0 0 -0 -0 -0 -0 -0 -0 -1 -1 -1 -1 -1 -1 -1 -1 -1 -1 -0 0 -0 -1 -1 -1
10 7 7 7 6 6 8 6 7 7 7 5 5 4 4 4 4 4 3 3 2 2 1 0 0 -0 -0 -0 -0 -0 -0 -0 -0 -0 -1 -0 -0 0 -0 -0 -1 -0 -1 -1 0 -1 -1 -1 -1
9 8 7 6 6 6 6 7 7 7 5 4 4 4 5 4 4 3 3 3 2 2 1 1 0 0 0 0 0 0 -0 -0 -0 -0 -1 -0 0 0 0 -0 -1 -1 -1 -1 0 -0 -0 -1 -1
7 7 7 6 7 6 7 7 7 6 5 5 5 5 5 4 4 4 4 3 2 2 2 1 1 1 1 1 1 0 0 0 -0 -0 -0 -0 -0 0 0 -0 1 -0 -0 -0 -0 -0 -0 -0 -1
7 9 7 8 7 8 6 9 9 6 5 6 6 6 5 4 4 3 3 3 2 1 2 2 1 1 1 1 1 1 0 0 0 -0 -0 -0 -0 0 0 0 0 0 -1 -1 -0 -0 -0 0 -0
10 9 12 8 7 7 8 13 8 6 6 7 6 5 5 5 4 4 3 3 2 1 2 2 1 1 2 1 1 0 0 0 0 -0 -0 -0 -0 -0 0 0 0 -0 -0 -0 0 0 1 0 0
11 14 13 11 7 8 9 12 8 6 6 7 6 6 6 5 4 4 3 3 3 2 2 3 1 1 2 1 1 1 0 0 0 -1 -0 -0 -0 -0 0 0 0 0 -0 0 0 0 0 1 1
14 13 12 13 10 9 10 11 8 7 7 7 7 6 5 5 4 4 4 3 3 3 3 2 2 2 1 1 1 0 0 0 0 -0 0 0 0 0 -0 -0 -0 -0 0 1 0 0 0 0 1
10 11 12 11 9 10 11 11 9 7 7 7 7 6 6 5 5 5 4 4 3 3 3 2 2 1 2 1 1 1 1 1 0 -0 0 0 1 1 -0 -0 -0 -0 0 0 0 0 1 1 0
10 12 12 11 9 10 11 11 9 8 7 7 7 6 6 6 6 5 5 4 4 3 2 2 2 1 1 1 1 0 1 0 0 -0 -0 -0 -0 0 -0 0 0 0 0 0 0 1 1 1 0
11 13 12 12 10 9 10 13 11 8 7 6 6 5 5 6 6 6 5 5 4 3 2 2 2 2 1 0 1 0 0 1 1 1 0 -0 -0 -0 -0 0 0 0 -0 1 0 0 1 2 1
14 9 10 11 13 16 11 18 13 10 9 8 7 6 6 5 5 5 5 5 4 4 2 2 2 2 1 1 1 1 2 2 2 1 0 -0 -1 -1 -0 -0 0 0 0 0 0 0 0 1 2
11 8 10 11 13 14 14 17 14 11 11 9 7 6 6 5 4 4 5 4 3 2 2 2 2 2 1 1 1 1 2 1 1 1 0 0 -0 0 -0 -0 0 0 0 0 -0 0 1 0 1
8 10 10 12 13 18 15 16 15 13 11 9 7 6 6 5 5 4 4 4 3 2 2 2 2 2 1 1 1 1 2 1 1 1 1 1 1 1 0 -0 0 0 -0 0 0 -0 0 1 1
10 13 18 18 19 19 14 16 14 10 8 8 8 7 5 5 5 5 4 4 3 3 2 2 2 2 2 2 1 1 1 1 1 1 2 1 1 1 1 -0 0 1 0 -0 -0 0 1 0 1
12 13 16 19 20 18 15 17 13 8 7 7 6 6 5 6 5 5 4 3 3 3 2 2 2 2 2 1 1 1 1 1 1 1 1 1 1 1 0 1 0 -0 0 0 -0 0 0 0 0
11 14 11 16 16 17 16 13 10 8 9 8 8 7 6 5 4 4 4 4 3 3 2 2 2 2 2 1 1 1 1 1 1 1 1 1 1 1 1 1 1 -0 -0 0 0 0 0 0 0
10 9 14 14 17 18 16 16 15 11 10 9 8 8 7 6 5 4 4 3 3 3 3 2 2 2 1 1 1 1 1 1 1 0 1 1 1 1 1 1 1 1 2 0 -0 0 1 1 1
11 12 12 12 14 16 18 15 10 10 9 9 8 7 7 6 5 5 4 3 2 2 2 2 2 2 2 1 1 1 1 1 1 1 1 1 1 1 1 1 2 3 2 2 0 0 0 1 1
10 11 12 14 15 15 15 15 9 8 8 8 8 7 6 5 5 4 4 3 3 3 2 2 2 2 1 1 1 1 1 1 1 1 1 0 1 1 0 2 3 2 1 1 1 2 1 1 1